Voltar ao catálogo

STARLINK-34073

AtivoComunicaçõesVLEO
NORAD 64606·PAYLOAD·🇺🇸 United States

Lançado Jun 25, 2025 de Cape Canaveral Space Force Station

Loading…

Próximas Passagens (próximas 24 horas)

TLE

AtualizadoSource: CelesTrak SupGP

Época: Sep 14, 2026, 21:45 UTC

1 64606C 25137N   26257.90673611 -.00027225  00000+0 -80412-3 0  2579
2 64606  53.1603 175.6823 0001273  82.7552 295.5895 15.34414129    14

Acompanhe STARLINK-34073 em tempo real com AllMySat

Download on the App Store